Terminal Aerodrome Forecast
Issued by NWS

Home | Current Version | Previous Version | Text Only | Print | Product List | Glossary On
Versions: 1 2 3 4 5 6 7 8 9 10 11 12 13 14 15 16 17 18 19 20 21 22 23 24 25 26
434
FTUS45 KSLC 031734
TAFENV
TAF
KENV 031734Z 0318/0418 13007KT P6SM SKC
     FM040300 27007KT P6SM SKC
     FM041000 13006KT P6SM SKC
      AMD LTD TO CLD VIS AND WIND=

USA.gov is the U.S. government's official web portal to all federal, state and local government web resources and services.